Time,TemperatureF,DewpointF,PressureIn,WindDirection,WindDirectionDegrees,WindSpeedMPH,WindSpeedGustMPH,Humidity,HourlyPrecipIn,Conditions,Clouds,dailyrainin,SoftwareType,DateUTC
2014-01-30 00:00:00,17.2,3.8,30.25,SW,226,0.0,4.0,55,0.00,,CLR,0.00,VWS V14.01,2014-01-30 05:00:00,
2014-01-30 00:02:00,17.2,3.8,30.25,SW,226,0.0,4.0,55,0.00,,CLR,0.00,VWS V14.01,2014-01-30 05:02:00,
2014-01-30 00:14:00,16.8,3.8,30.25,SW,226,0.0,0.0,56,0.00,,CLR,0.00,VWS V14.01,2014-01-30 05:14:00,
2014-01-30 00:19:00,16.6,3.7,30.26,SW,226,0.0,0.0,56,0.00,,CLR,0.00,VWS V14.01,2014-01-30 05:19:00,
2014-01-30 00:24:00,16.5,3.9,30.26,SW,226,0.0,0.0,57,0.00,,CLR,0.00,VWS V14.01,2014-01-30 05:24:00,
2014-01-30 00:29:00,16.3,3.8,30.26,SW,226,0.0,0.0,57,0.00,,CLR,0.00,VWS V14.01,2014-01-30 05:29:00,
2014-01-30 00:34:00,16.1,3.9,30.26,SW,226,0.0,0.0,58,0.00,,CLR,0.00,VWS V14.01,2014-01-30 05:34:00,
2014-01-30 00:39:00,15.9,3.8,30.27,SW,226,0.0,0.0,58,0.00,,CLR,0.00,VWS V14.01,2014-01-30 05:39:00,
2014-01-30 00:44:00,15.7,3.9,30.27,SW,226,0.0,0.0,59,0.00,,CLR,0.00,VWS V14.01,2014-01-30 05:44:00,
2014-01-30 00:49:00,15.5,4.1,30.27,SW,226,0.0,0.0,60,0.00,,CLR,0.00,VWS V14.01,2014-01-30 05:49:00,
2014-01-30 00:54:00,15.3,4.3,30.27,SW,226,0.0,0.0,61,0.00,,CLR,0.00,VWS V14.01,2014-01-30 05:54:00,
2014-01-30 00:59:00,15.2,4.2,30.27,SW,226,0.0,0.0,61,0.00,,CLR,0.00,VWS V14.01,2014-01-30 05:59:00,
2014-01-30 01:04:00,15.0,4.0,30.28,SW,226,0.0,0.0,61,0.00,,CLR,0.00,VWS V14.01,2014-01-30 06:04:00,
2014-01-30 01:09:00,14.8,3.8,30.28,SW,226,0.0,1.0,61,0.00,,CLR,0.00,VWS V14.01,2014-01-30 06:09:00,
2014-01-30 01:14:00,14.7,4.1,30.28,SW,226,0.0,2.0,62,0.00,,CLR,0.00,VWS V14.01,2014-01-30 06:14:00,
2014-01-30 01:19:00,14.5,3.9,30.29,SW,226,0.0,2.0,62,0.00,,CLR,0.00,VWS V14.01,2014-01-30 06:19:00,
2014-01-30 01:24:00,14.4,4.1,30.29,SW,226,0.0,2.0,63,0.00,,CLR,0.00,VWS V14.01,2014-01-30 06:24:00,
2014-01-30 01:29:00,14.4,4.1,30.29,SW,226,2.0,2.0,63,0.00,,CLR,0.00,VWS V14.01,2014-01-30 06:29:00,
2014-01-30 01:34:00,14.3,4.4,30.29,SW,226,0.0,2.0,64,0.00,,CLR,0.00,VWS V14.01,2014-01-30 06:34:00,
2014-01-30 01:39:00,14.3,4.0,30.29,WSW,237,0.0,4.0,63,0.00,,CLR,0.00,VWS V14.01,2014-01-30 06:39:00,
2014-01-30 01:44:00,14.3,4.4,30.30,WSW,237,0.0,4.0,64,0.00,,CLR,0.00,VWS V14.01,2014-01-30 06:44:00,
2014-01-30 01:49:00,14.3,4.0,30.30,WSW,247,0.0,5.0,63,0.00,,CLR,0.00,VWS V14.01,2014-01-30 06:49:00,
2014-01-30 01:54:00,14.5,4.2,30.30,WSW,247,0.0,5.0,63,0.00,,CLR,0.00,VWS V14.01,2014-01-30 06:54:00,
2014-01-30 01:59:00,14.7,4.4,30.30,SW,230,0.0,5.0,63,0.00,,CLR,0.00,VWS V14.01,2014-01-30 06:59:00,
2014-01-30 02:04:00,14.9,3.9,30.31,SW,230,0.0,0.0,61,0.00,,CLR,0.00,VWS V14.01,2014-01-30 07:04:00,
2014-01-30 02:09:00,15.0,4.3,30.31,SW,230,3.0,4.0,62,0.00,,CLR,0.00,VWS V14.01,2014-01-30 07:09:00,
2014-01-30 02:14:00,15.1,4.4,30.31,West,264,1.0,6.0,62,0.00,,CLR,0.00,VWS V14.01,2014-01-30 07:14:00,
2014-01-30 02:19:00,15.3,4.3,30.31,West,263,0.0,6.0,61,0.00,,CLR,0.00,VWS V14.01,2014-01-30 07:19:00,
2014-01-30 02:24:00,15.4,4.0,30.32,WSW,248,0.0,6.0,60,0.00,,CLR,0.00,VWS V14.01,2014-01-30 07:24:00,
2014-01-30 02:29:00,15.5,4.1,30.32,SW,236,0.0,7.0,60,0.00,,CLR,0.00,VWS V14.01,2014-01-30 07:29:00,
2014-01-30 02:34:00,15.8,3.7,30.31,SW,229,2.0,3.0,58,0.00,,CLR,0.00,VWS V14.01,2014-01-30 07:34:00,
2014-01-30 02:39:00,15.9,3.8,30.32,West,279,1.0,4.0,58,0.00,,CLR,0.00,VWS V14.01,2014-01-30 07:39:00,
2014-01-30 02:44:00,16.1,3.6,30.32,WSW,251,2.0,5.0,57,0.00,,CLR,0.00,VWS V14.01,2014-01-30 07:44:00,
2014-01-30 02:49:00,16.3,3.8,30.32,West,259,0.0,5.0,57,0.00,,CLR,0.00,VWS V14.01,2014-01-30 07:49:00,
2014-01-30 02:54:00,16.5,3.5,30.32,West,259,0.0,5.0,56,0.00,,CLR,0.00,VWS V14.01,2014-01-30 07:54:00,
2014-01-30 02:59:00,16.7,3.7,30.32,West,259,1.0,5.0,56,0.00,,CLR,0.00,VWS V14.01,2014-01-30 07:59:00,
2014-01-30 03:04:00,16.7,4.1,30.32,West,259,1.0,1.0,57,0.00,,CLR,0.00,VWS V14.01,2014-01-30 08:04:00,
2014-01-30 03:09:00,16.8,3.8,30.33,WSW,239,2.0,3.0,56,0.00,,CLR,0.00,VWS V14.01,2014-01-30 08:09:00,
2014-01-30 03:14:00,16.8,3.8,30.33,West,275,0.0,4.0,56,0.00,,CLR,0.00,VWS V14.01,2014-01-30 08:14:00,
2014-01-30 03:19:00,16.8,4.2,30.33,West,275,0.0,4.0,57,0.00,,CLR,0.00,VWS V14.01,2014-01-30 08:19:00,
2014-01-30 03:24:00,16.7,4.5,30.32,WNW,293,2.0,4.0,58,0.00,,CLR,0.00,VWS V14.01,2014-01-30 08:24:00,
2014-01-30 03:29:00,16.6,4.4,30.32,SSW,209,0.0,4.0,58,0.00,,CLR,0.00,VWS V14.01,2014-01-30 08:29:00,
2014-01-30 03:34:00,16.5,4.3,30.32,SSW,209,0.0,1.0,58,0.00,,CLR,0.00,VWS V14.01,2014-01-30 08:34:00,
2014-01-30 03:39:00,16.3,4.5,30.32,SW,227,3.0,3.0,59,0.00,,CLR,0.00,VWS V14.01,2014-01-30 08:39:00,
2014-01-30 03:44:00,16.2,4.4,30.32,West,263,0.0,4.0,59,0.00,,CLR,0.00,VWS V14.01,2014-01-30 08:44:00,
2014-01-30 03:49:00,16.1,4.3,30.32,WSW,248,2.0,4.0,59,0.00,,CLR,0.00,VWS V14.01,2014-01-30 08:49:00,
2014-01-30 03:54:00,15.9,3.8,30.33,WSW,248,0.0,4.0,58,0.00,,CLR,0.00,VWS V14.01,2014-01-30 08:54:00,
2014-01-30 03:59:00,15.8,3.7,30.33,WSW,248,0.0,4.0,58,0.00,,CLR,0.00,VWS V14.01,2014-01-30 08:59:00,
2014-01-30 04:04:00,15.8,4.0,30.33,WSW,248,0.0,1.0,59,0.00,,CLR,0.00,VWS V14.01,2014-01-30 09:04:00,
2014-01-30 04:09:00,15.7,4.3,30.33,WSW,248,0.0,1.0,60,0.00,,CLR,0.00,VWS V14.01,2014-01-30 09:09:00,
2014-01-30 04:14:00,15.5,4.1,30.33,WSW,248,1.0,3.0,60,0.00,,CLR,0.00,VWS V14.01,2014-01-30 09:14:00,
2014-01-30 04:19:00,15.4,4.0,30.33,WSW,248,0.0,3.0,60,0.00,,CLR,0.00,VWS V14.01,2014-01-30 09:19:00,
2014-01-30 04:24:00,15.3,3.9,30.34,WSW,248,0.0,3.0,60,0.00,,CLR,0.00,VWS V14.01,2014-01-30 09:24:00,
2014-01-30 04:29:00,15.2,3.8,30.34,WSW,248,0.0,3.0,60,0.00,,CLR,0.00,VWS V14.01,2014-01-30 09:29:00,
2014-01-30 04:34:00,15.1,4.1,30.34,WSW,248,1.0,2.0,61,0.00,,CLR,0.00,VWS V14.01,2014-01-30 09:34:00,
2014-01-30 04:39:00,15.0,4.0,30.35,WSW,248,0.0,3.0,61,0.00,,CLR,0.00,VWS V14.01,2014-01-30 09:39:00,
2014-01-30 04:44:00,14.8,4.2,30.35,WSW,248,0.0,3.0,62,0.00,,CLR,0.00,VWS V14.01,2014-01-30 09:44:00,
2014-01-30 04:49:00,14.7,4.1,30.35,WSW,248,1.0,3.0,62,0.00,,CLR,0.00,VWS V14.01,2014-01-30 09:49:00,
2014-01-30 04:54:00,14.6,4.0,30.35,WSW,248,1.0,3.0,62,0.00,,CLR,0.00,VWS V14.01,2014-01-30 09:54:00,
2014-01-30 04:59:00,14.6,4.0,30.36,WSW,248,1.0,3.0,62,0.00,,CLR,0.00,VWS V14.01,2014-01-30 09:59:00,
2014-01-30 05:04:00,14.5,3.9,30.36,WSW,248,0.0,1.0,62,0.00,,CLR,0.00,VWS V14.01,2014-01-30 10:04:00,
2014-01-30 05:09:00,14.4,4.1,30.36,WSW,248,0.0,3.0,63,0.00,,CLR,0.00,VWS V14.01,2014-01-30 10:09:00,
2014-01-30 05:14:00,14.3,4.0,30.36,WSW,248,1.0,3.0,63,0.00,,CLR,0.00,VWS V14.01,2014-01-30 10:14:00,
2014-01-30 05:19:00,14.1,3.8,30.36,WSW,248,1.0,3.0,63,0.00,,CLR,0.00,VWS V14.01,2014-01-30 10:19:00,
2014-01-30 05:24:00,14.0,3.7,30.36,WSW,248,1.0,3.0,63,0.00,,CLR,0.00,VWS V14.01,2014-01-30 10:24:00,
2014-01-30 05:29:00,13.7,3.5,30.37,WSW,248,2.0,3.0,63,0.00,,CLR,0.00,VWS V14.01,2014-01-30 10:29:00,
2014-01-30 05:34:00,13.6,3.4,30.37,WSW,248,2.0,2.0,63,0.00,,CLR,0.00,VWS V14.01,2014-01-30 10:34:00,
2014-01-30 05:39:00,13.5,3.3,30.38,WSW,248,1.0,2.0,63,0.00,,CLR,0.00,VWS V14.01,2014-01-30 10:39:00,
2014-01-30 05:44:00,13.4,3.2,30.38,WSW,248,0.0,2.0,63,0.00,,CLR,0.00,VWS V14.01,2014-01-30 10:44:00,
2014-01-30 05:49:00,13.2,3.0,30.38,WSW,248,0.0,2.0,63,0.00,,CLR,0.00,VWS V14.01,2014-01-30 10:49:00,
2014-01-30 05:54:00,13.1,3.2,30.38,WSW,248,1.0,2.0,64,0.00,,CLR,0.00,VWS V14.01,2014-01-30 10:54:00,
2014-01-30 06:00:00,13.0,3.1,30.38,WSW,248,0.0,2.0,64,0.00,,CLR,0.00,VWS V14.01,2014-01-30 11:00:00,
2014-01-30 06:05:00,13.0,3.1,30.38,WSW,248,1.0,2.0,64,0.00,,CLR,0.00,VWS V14.01,2014-01-30 11:05:00,
2014-01-30 06:10:00,12.8,2.9,30.38,WSW,248,1.0,2.0,64,0.00,,CLR,0.00,VWS V14.01,2014-01-30 11:10:00,
2014-01-30 06:15:00,12.8,3.3,30.38,WSW,248,1.0,2.0,65,0.00,,CLR,0.00,VWS V14.01,2014-01-30 11:15:00,
2014-01-30 06:20:00,12.6,3.1,30.38,WSW,248,1.0,2.0,65,0.00,,CLR,0.00,VWS V14.01,2014-01-30 11:20:00,
2014-01-30 06:25:00,12.5,3.3,30.39,WSW,248,2.0,2.0,66,0.00,,CLR,0.00,VWS V14.01,2014-01-30 11:25:00,
2014-01-30 06:30:00,12.5,3.3,30.39,WSW,248,2.0,3.0,66,0.00,,CLR,0.00,VWS V14.01,2014-01-30 11:30:00,
2014-01-30 06:35:00,12.5,3.3,30.39,WSW,248,1.0,3.0,66,0.00,,CLR,0.00,VWS V14.01,2014-01-30 11:35:00,
2014-01-30 06:40:00,12.4,3.2,30.39,WSW,248,0.0,3.0,66,0.00,,CLR,0.00,VWS V14.01,2014-01-30 11:40:00,
2014-01-30 06:45:00,12.4,3.2,30.39,WSW,248,1.0,3.0,66,0.00,,CLR,0.00,VWS V14.01,2014-01-30 11:45:00,
2014-01-30 06:50:00,12.3,3.1,30.40,WSW,248,0.0,3.0,66,0.00,,CLR,0.00,VWS V14.01,2014-01-30 11:50:00,
2014-01-30 06:55:00,12.2,3.0,30.40,WSW,248,1.0,3.0,66,0.00,,CLR,0.00,VWS V14.01,2014-01-30 11:55:00,
2014-01-30 07:00:00,12.2,3.0,30.40,WSW,248,2.0,3.0,66,0.00,,CLR,0.00,VWS V14.01,2014-01-30 12:00:00,
2014-01-30 07:05:00,12.1,2.9,30.40,WSW,248,1.0,2.0,66,0.00,,CLR,0.00,VWS V14.01,2014-01-30 12:05:00,
2014-01-30 07:10:00,12.0,2.8,30.41,WSW,248,1.0,2.0,66,0.00,,CLR,0.00,VWS V14.01,2014-01-30 12:10:00,
2014-01-30 07:15:00,11.9,2.7,30.41,WSW,248,2.0,2.0,66,0.00,,CLR,0.00,VWS V14.01,2014-01-30 12:15:00,
2014-01-30 07:20:00,11.9,2.7,30.41,WSW,248,2.0,3.0,66,0.00,,CLR,0.00,VWS V14.01,2014-01-30 12:20:00,
2014-01-30 07:25:00,11.9,3.1,30.41,WSW,248,1.0,3.0,67,0.00,,CLR,0.00,VWS V14.01,2014-01-30 12:25:00,
2014-01-30 07:30:00,11.9,3.4,30.41,WSW,248,1.0,3.0,68,0.00,,CLR,0.00,VWS V14.01,2014-01-30 12:30:00,
2014-01-30 07:35:00,11.9,3.4,30.41,WSW,248,2.0,2.0,68,0.00,,CLR,0.00,VWS V14.01,2014-01-30 12:35:00,
2014-01-30 07:40:00,12.0,3.5,30.41,WSW,248,2.0,2.0,68,0.00,,CLR,0.00,VWS V14.01,2014-01-30 12:40:00,
2014-01-30 07:45:00,12.1,3.6,30.42,WSW,248,1.0,2.0,68,0.00,,CLR,0.00,VWS V14.01,2014-01-30 12:45:00,
2014-01-30 07:50:00,12.2,3.7,30.42,WSW,248,1.0,3.0,68,0.00,,CLR,0.00,VWS V14.01,2014-01-30 12:50:00,
2014-01-30 07:55:00,12.3,3.8,30.42,WSW,248,2.0,3.0,68,0.00,,CLR,0.00,VWS V14.01,2014-01-30 12:55:00,
2014-01-30 08:00:00,12.5,4.0,30.42,WSW,248,1.0,3.0,68,0.00,,CLR,0.00,VWS V14.01,2014-01-30 13:00:00,
2014-01-30 08:05:00,12.7,4.2,30.42,WSW,248,1.0,3.0,68,0.00,,CLR,0.00,VWS V14.01,2014-01-30 13:05:00,
2014-01-30 08:10:00,12.9,4.3,30.42,West,261,2.0,3.0,68,0.00,,CLR,0.00,VWS V14.01,2014-01-30 13:10:00,
2014-01-30 08:15:00,13.1,4.2,30.42,NW,305,2.0,3.0,67,0.00,,CLR,0.00,VWS V14.01,2014-01-30 13:15:00,
2014-01-30 08:20:00,13.5,4.6,30.42,NW,312,2.0,4.0,67,0.00,,CLR,0.00,VWS V14.01,2014-01-30 13:20:00,
2014-01-30 08:25:00,13.8,4.6,30.42,NW,322,3.0,4.0,66,0.00,,CLR,0.00,VWS V14.01,2014-01-30 13:25:00,
2014-01-30 08:30:00,14.4,4.5,30.42,NNW,327,2.0,7.0,64,0.00,,CLR,0.00,VWS V14.01,2014-01-30 13:30:00,
2014-01-30 08:35:00,14.9,4.9,30.42,WNW,282,6.0,6.0,64,0.00,,CLR,0.00,VWS V14.01,2014-01-30 13:35:00,
2014-01-30 08:40:00,15.6,4.9,30.42,NW,317,3.0,6.0,62,0.00,,CLR,0.00,VWS V14.01,2014-01-30 13:40:00,
2014-01-30 08:45:00,16.3,5.2,30.42,NNW,336,4.0,7.0,61,0.00,,CLR,0.00,VWS V14.01,2014-01-30 13:45:00,
2014-01-30 08:50:00,16.9,5.4,30.42,NNW,333,5.0,7.0,60,0.00,,CLR,0.00,VWS V14.01,2014-01-30 13:50:00,
2014-01-30 08:55:00,17.5,5.6,30.42,NNW,333,2.0,7.0,59,0.00,,CLR,0.00,VWS V14.01,2014-01-30 13:55:00,
2014-01-30 09:00:00,17.9,5.6,30.43,NW,325,2.0,7.0,58,0.00,,CLR,0.00,VWS V14.01,2014-01-30 14:00:00,
2014-01-30 09:05:00,18.5,6.2,30.42,NNW,329,2.0,4.0,58,0.00,,CLR,0.00,VWS V14.01,2014-01-30 14:05:00,
2014-01-30 09:10:00,19.0,5.9,30.43,WNW,284,1.0,6.0,56,0.00,,CLR,0.00,VWS V14.01,2014-01-30 14:10:00,
2014-01-30 09:15:00,19.5,6.0,30.43,NW,309,2.0,6.0,55,0.00,,CLR,0.00,VWS V14.01,2014-01-30 14:15:00,
2014-01-30 09:20:00,20.0,5.6,30.43,NW,316,1.0,6.0,53,0.00,,CLR,0.00,VWS V14.01,2014-01-30 14:20:00,
2014-01-30 09:25:00,20.5,5.7,30.43,West,271,2.0,6.0,52,0.00,,CLR,0.00,VWS V14.01,2014-01-30 14:25:00,
2014-01-30 09:30:00,20.9,5.2,30.43,NNE,12,2.0,6.0,50,0.00,,CLR,0.00,VWS V14.01,2014-01-30 14:30:00,
2014-01-30 09:35:00,21.4,5.7,30.43,NW,322,2.0,5.0,50,0.00,,CLR,0.00,VWS V14.01,2014-01-30 14:35:00,
2014-01-30 09:40:00,21.8,5.6,30.43,NW,322,0.0,5.0,49,0.00,,CLR,0.00,VWS V14.01,2014-01-30 14:40:00,
2014-01-30 09:45:00,22.3,5.6,30.44,NW,323,2.0,5.0,48,0.00,,CLR,0.00,VWS V14.01,2014-01-30 14:45:00,
2014-01-30 09:50:00,22.9,6.2,30.44,WSW,248,0.0,5.0,48,0.00,,CLR,0.00,VWS V14.01,2014-01-30 14:50:00,
2014-01-30 09:55:00,23.4,5.7,30.43,WSW,248,3.0,5.0,46,0.00,,CLR,0.00,VWS V14.01,2014-01-30 14:55:00,
2014-01-30 10:00:00,24.0,6.2,30.44,WSW,248,0.0,5.0,46,0.00,,CLR,0.00,VWS V14.01,2014-01-30 15:00:00,
2014-01-30 10:05:00,24.7,5.9,30.43,WSW,248,1.0,3.0,44,0.00,,CLR,0.00,VWS V14.01,2014-01-30 15:05:00,
2014-01-30 10:10:00,25.4,6.0,30.44,WSW,248,0.0,3.0,43,0.00,,CLR,0.00,VWS V14.01,2014-01-30 15:10:00,
2014-01-30 10:15:00,26.1,6.2,30.44,WSW,248,1.0,3.0,42,0.00,,CLR,0.00,VWS V14.01,2014-01-30 15:15:00,
2014-01-30 10:20:00,26.8,6.3,30.44,SSW,196,1.0,5.0,41,0.00,,CLR,0.00,VWS V14.01,2014-01-30 15:20:00,
2014-01-30 10:25:00,27.3,6.2,30.44,WSW,251,2.0,5.0,40,0.00,,CLR,0.00,VWS V14.01,2014-01-30 15:25:00,
2014-01-30 10:30:00,28.1,6.9,30.44,WSW,251,0.0,5.0,40,0.00,,CLR,0.00,VWS V14.01,2014-01-30 15:30:00,
2014-01-30 10:35:00,28.8,7.0,30.44,SW,231,5.0,6.0,39,0.00,,CLR,0.00,VWS V14.01,2014-01-30 15:35:00,
2014-01-30 10:40:00,29.1,6.7,30.44,SSW,210,2.0,6.0,38,0.00,,CLR,0.00,VWS V14.01,2014-01-30 15:40:00,
2014-01-30 10:45:00,29.3,6.3,30.44,SSW,210,1.0,6.0,37,0.00,,CLR,0.00,VWS V14.01,2014-01-30 15:45:00,
2014-01-30 10:50:00,29.7,6.6,30.43,SW,219,1.0,6.0,37,0.00,,CLR,0.00,VWS V14.01,2014-01-30 15:50:00,
2014-01-30 10:55:00,29.8,6.7,30.43,SW,234,2.0,6.0,37,0.00,,CLR,0.00,VWS V14.01,2014-01-30 15:55:00,
2014-01-30 11:00:00,29.9,6.8,30.43,SW,234,1.0,6.0,37,0.00,,CLR,0.00,VWS V14.01,2014-01-30 16:00:00,
2014-01-30 11:05:00,30.2,6.5,30.43,SW,234,3.0,4.0,36,0.00,,CLR,0.00,VWS V14.01,2014-01-30 16:05:00,
2014-01-30 11:10:00,29.8,7.3,30.43,South,175,2.0,5.0,38,0.00,,CLR,0.00,VWS V14.01,2014-01-30 16:10:00,
2014-01-30 11:15:00,29.9,6.8,30.43,SW,230,4.0,6.0,37,0.00,,CLR,0.00,VWS V14.01,2014-01-30 16:15:00,
2014-01-30 11:20:00,29.7,6.6,30.43,SW,225,5.0,6.0,37,0.00,,CLR,0.00,VWS V14.01,2014-01-30 16:20:00,
2014-01-30 11:25:00,29.6,7.1,30.43,South,178,3.0,6.0,38,0.00,,CLR,0.00,VWS V14.01,2014-01-30 16:25:00,
2014-01-30 11:30:00,29.2,7.9,30.42,SSE,158,2.0,6.0,40,0.00,,CLR,0.00,VWS V14.01,2014-01-30 16:30:00,
2014-01-30 11:35:00,29.0,8.8,30.42,SSW,194,1.0,7.0,42,0.00,,CLR,0.00,VWS V14.01,2014-01-30 16:35:00,
2014-01-30 11:40:00,28.9,10.7,30.42,SW,234,2.0,7.0,46,0.00,,CLR,0.00,VWS V14.01,2014-01-30 16:40:00,
2014-01-30 11:45:00,28.9,10.7,30.42,South,170,2.0,7.0,46,0.00,,CLR,0.00,VWS V14.01,2014-01-30 16:45:00,
2014-01-30 11:50:00,28.8,10.6,30.42,South,186,3.0,7.0,46,0.00,,CLR,0.00,VWS V14.01,2014-01-30 16:50:00,
2014-01-30 11:55:00,28.5,10.9,30.41,SSE,159,3.0,7.0,47,0.00,,CLR,0.00,VWS V14.01,2014-01-30 16:55:00,
2014-01-30 12:00:00,28.4,12.1,30.42,SSW,202,4.0,7.0,50,0.00,,CLR,0.00,VWS V14.01,2014-01-30 17:00:00,
2014-01-30 12:05:00,28.5,12.2,30.41,SSW,213,3.0,6.0,50,0.00,,CLR,0.00,VWS V14.01,2014-01-30 17:05:00,
2014-01-30 12:10:00,28.5,12.2,30.41,SSW,197,4.0,7.0,50,0.00,,CLR,0.00,VWS V14.01,2014-01-30 17:10:00,
2014-01-30 12:15:00,28.5,12.7,30.41,SSE,157,4.0,7.0,51,0.00,,CLR,0.00,VWS V14.01,2014-01-30 17:15:00,
2014-01-30 12:20:00,28.5,12.7,30.41,SSW,192,3.0,8.0,51,0.00,,CLR,0.00,VWS V14.01,2014-01-30 17:20:00,
2014-01-30 12:25:00,28.5,12.2,30.40,WSW,258,2.0,8.0,50,0.00,,CLR,0.00,VWS V14.01,2014-01-30 17:25:00,
2014-01-30 12:30:00,28.7,12.9,30.40,South,173,2.0,9.0,51,0.00,,CLR,0.00,VWS V14.01,2014-01-30 17:30:00,
2014-01-30 12:35:00,28.7,12.4,30.40,SSE,164,4.0,5.0,50,0.00,,CLR,0.00,VWS V14.01,2014-01-30 17:35:00,
2014-01-30 12:40:00,28.9,13.1,30.40,South,187,3.0,6.0,51,0.00,,CLR,0.00,VWS V14.01,2014-01-30 17:40:00,
2014-01-30 12:45:00,29.0,13.6,30.39,SW,215,4.0,7.0,52,0.00,,CLR,0.00,VWS V14.01,2014-01-30 17:45:00,
2014-01-30 12:50:00,29.2,14.2,30.39,SSW,194,2.0,7.0,53,0.00,,CLR,0.00,VWS V14.01,2014-01-30 17:50:00,
2014-01-30 12:55:00,29.4,14.4,30.40,South,171,3.0,11.0,53,0.00,,CLR,0.00,VWS V14.01,2014-01-30 17:55:00,
2014-01-30 13:00:00,29.5,14.5,30.39,SW,221,3.0,11.0,53,0.00,,CLR,0.00,VWS V14.01,2014-01-30 18:00:00,
2014-01-30 13:05:00,29.5,14.5,30.39,South,172,4.0,6.0,53,0.00,,CLR,0.00,VWS V14.01,2014-01-30 18:05:00,
2014-01-30 13:10:00,29.7,15.1,30.39,SSE,157,3.0,7.0,54,0.00,,CLR,0.00,VWS V14.01,2014-01-30 18:10:00,
2014-01-30 13:15:00,29.8,14.8,30.38,SSE,162,4.0,7.0,53,0.00,,CLR,0.00,VWS V14.01,2014-01-30 18:15:00,
2014-01-30 13:20:00,29.6,15.0,30.38,SW,226,4.0,7.0,54,0.00,,CLR,0.00,VWS V14.01,2014-01-30 18:20:00,
2014-01-30 13:25:00,29.7,14.7,30.38,SSW,213,2.0,8.0,53,0.00,,CLR,0.00,VWS V14.01,2014-01-30 18:25:00,
2014-01-30 13:30:00,29.8,15.2,30.37,SSW,207,2.0,8.0,54,0.00,,CLR,0.00,VWS V14.01,2014-01-30 18:30:00,
2014-01-30 13:35:00,29.9,15.7,30.37,SSW,202,2.0,6.0,55,0.00,,CLR,0.00,VWS V14.01,2014-01-30 18:35:00,
2014-01-30 13:40:00,29.9,15.3,30.37,WSW,238,5.0,7.0,54,0.00,,CLR,0.00,VWS V14.01,2014-01-30 18:40:00,
2014-01-30 13:45:00,30.0,15.4,30.36,SSW,200,1.0,7.0,54,0.00,,CLR,0.00,VWS V14.01,2014-01-30 18:45:00,
2014-01-30 13:50:00,30.1,15.9,30.37,SSE,164,4.0,8.0,55,0.00,,CLR,0.00,VWS V14.01,2014-01-30 18:50:00,
2014-01-30 13:55:00,30.1,16.3,30.36,SSW,202,4.0,8.0,56,0.00,,CLR,0.00,VWS V14.01,2014-01-30 18:55:00,
2014-01-30 14:00:00,30.2,15.6,30.36,SSE,159,4.0,8.0,54,0.00,,CLR,0.00,VWS V14.01,2014-01-30 19:00:00,
2014-01-30 14:05:00,30.1,16.3,30.36,South,181,3.0,4.0,56,0.00,,CLR,0.00,VWS V14.01,2014-01-30 19:05:00,
2014-01-30 14:10:00,30.0,15.8,30.36,SSE,167,2.0,7.0,55,0.00,,CLR,0.00,VWS V14.01,2014-01-30 19:10:00,
2014-01-30 14:15:00,30.0,16.2,30.36,SSE,157,0.0,7.0,56,0.00,,CLR,0.00,VWS V14.01,2014-01-30 19:15:00,
2014-01-30 14:20:00,29.9,15.7,30.36,South,184,3.0,7.0,55,0.00,,CLR,0.00,VWS V14.01,2014-01-30 19:20:00,
2014-01-30 14:25:00,29.7,15.9,30.36,SSW,192,2.0,7.0,56,0.00,,CLR,0.00,VWS V14.01,2014-01-30 19:25:00,
2014-01-30 14:30:00,29.7,16.4,30.36,WSW,246,3.0,7.0,57,0.00,,CLR,0.00,VWS V14.01,2014-01-30 19:30:00,
2014-01-30 14:35:00,29.6,15.8,30.36,SSE,156,1.0,4.0,56,0.00,,CLR,0.00,VWS V14.01,2014-01-30 19:35:00,
2014-01-30 14:40:00,29.6,16.2,30.35,SSW,211,2.0,5.0,57,0.00,,CLR,0.00,VWS V14.01,2014-01-30 19:40:00,
2014-01-30 14:45:00,29.4,16.1,30.35,SSE,165,1.0,5.0,57,0.00,,CLR,0.00,VWS V14.01,2014-01-30 19:45:00,
2014-01-30 14:50:00,29.5,16.6,30.35,SSE,162,2.0,5.0,58,0.00,,CLR,0.00,VWS V14.01,2014-01-30 19:50:00,
2014-01-30 14:55:00,29.6,16.6,30.35,SW,216,1.0,5.0,58,0.00,,CLR,0.00,VWS V14.01,2014-01-30 19:55:00,
2014-01-30 15:01:00,29.6,16.6,30.35,WSW,247,1.0,7.0,58,0.00,,CLR,0.00,VWS V14.01,2014-01-30 20:01:00,
2014-01-30 15:06:00,29.5,16.6,30.35,South,171,2.0,5.0,58,0.00,,CLR,0.00,VWS V14.01,2014-01-30 20:06:00,
2014-01-30 15:11:00,29.4,16.5,30.34,WSW,256,0.0,5.0,58,0.00,,CLR,0.00,VWS V14.01,2014-01-30 20:11:00,
2014-01-30 15:16:00,29.2,16.7,30.34,SW,225,4.0,5.0,59,0.00,,CLR,0.00,VWS V14.01,2014-01-30 20:16:00,
2014-01-30 15:21:00,29.0,16.5,30.34,SW,225,2.0,5.0,59,0.00,,CLR,0.00,VWS V14.01,2014-01-30 20:21:00,
2014-01-30 15:26:00,28.8,16.3,30.34,South,185,1.0,5.0,59,0.00,,CLR,0.00,VWS V14.01,2014-01-30 20:26:00,
2014-01-30 15:31:00,28.7,16.2,30.34,South,171,4.0,5.0,59,0.00,,CLR,0.00,VWS V14.01,2014-01-30 20:31:00,
2014-01-30 15:36:00,28.4,15.9,30.34,South,171,1.0,4.0,59,0.00,,CLR,0.00,VWS V14.01,2014-01-30 20:36:00,
2014-01-30 15:41:00,28.2,16.1,30.34,South,171,0.0,4.0,60,0.00,,CLR,0.00,VWS V14.01,2014-01-30 20:41:00,
2014-01-30 15:46:00,28.1,16.0,30.34,SW,221,2.0,4.0,60,0.00,,CLR,0.00,VWS V14.01,2014-01-30 20:46:00,
2014-01-30 15:51:00,27.9,15.8,30.34,SE,144,1.0,4.0,60,0.00,,CLR,0.00,VWS V14.01,2014-01-30 20:51:00,
2014-01-30 15:56:00,27.6,15.9,30.33,SSW,202,3.0,4.0,61,0.00,,CLR,0.00,VWS V14.01,2014-01-30 20:56:00,
2014-01-30 16:01:00,27.4,15.7,30.34,SSW,202,1.0,4.0,61,0.00,,CLR,0.00,VWS V14.01,2014-01-30 21:01:00,
2014-01-30 16:06:00,27.2,15.9,30.34,SSW,202,1.0,3.0,62,0.00,,CLR,0.00,VWS V14.01,2014-01-30 21:06:00,
2014-01-30 16:11:00,27.0,15.7,30.34,SSW,202,0.0,3.0,62,0.00,,CLR,0.00,VWS V14.01,2014-01-30 21:11:00,
2014-01-30 16:16:00,26.9,16.0,30.34,SSW,202,2.0,3.0,63,0.00,,CLR,0.00,VWS V14.01,2014-01-30 21:16:00,
2014-01-30 16:21:00,26.7,15.8,30.33,SSW,202,0.0,3.0,63,0.00,,CLR,0.00,VWS V14.01,2014-01-30 21:21:00,
2014-01-30 16:26:00,26.6,15.7,30.33,SSW,202,1.0,3.0,63,0.00,,CLR,0.00,VWS V14.01,2014-01-30 21:26:00,
2014-01-30 16:31:00,26.5,15.6,30.33,SSW,202,2.0,3.0,63,0.00,,CLR,0.00,VWS V14.01,2014-01-30 21:31:00,
2014-01-30 16:36:00,26.3,15.4,30.33,SSW,202,0.0,3.0,63,0.00,,CLR,0.00,VWS V14.01,2014-01-30 21:36:00,
2014-01-30 16:41:00,26.2,15.7,30.34,SSW,202,0.0,3.0,64,0.00,,CLR,0.00,VWS V14.01,2014-01-30 21:41:00,
2014-01-30 16:46:00,26.1,15.6,30.34,SSW,202,0.0,3.0,64,0.00,,CLR,0.00,VWS V14.01,2014-01-30 21:46:00,
2014-01-30 16:51:00,26.0,15.9,30.33,SSW,202,2.0,3.0,65,0.00,,CLR,0.00,VWS V14.01,2014-01-30 21:51:00,
2014-01-30 16:56:00,25.9,15.8,30.33,SSW,202,2.0,4.0,65,0.00,,CLR,0.00,VWS V14.01,2014-01-30 21:56:00,
2014-01-30 17:01:00,25.8,15.7,30.33,SSW,202,0.0,4.0,65,0.00,,CLR,0.00,VWS V14.01,2014-01-30 22:01:00,
2014-01-30 17:06:00,25.7,15.6,30.33,SSW,202,0.0,3.0,65,0.00,,CLR,0.00,VWS V14.01,2014-01-30 22:06:00,
2014-01-30 17:11:00,25.6,15.5,30.34,SSW,202,0.0,3.0,65,0.00,,CLR,0.00,VWS V14.01,2014-01-30 22:11:00,
2014-01-30 17:16:00,25.4,15.3,30.33,SSW,202,0.0,3.0,65,0.00,,CLR,0.00,VWS V14.01,2014-01-30 22:16:00,
2014-01-30 17:21:00,25.3,15.6,30.33,SSW,202,0.0,3.0,66,0.00,,CLR,0.00,VWS V14.01,2014-01-30 22:21:00,
2014-01-30 17:26:00,25.1,15.4,30.33,SSW,202,0.0,3.0,66,0.00,,CLR,0.00,VWS V14.01,2014-01-30 22:26:00,
2014-01-30 17:31:00,24.9,15.2,30.32,SSW,202,0.0,3.0,66,0.00,,CLR,0.00,VWS V14.01,2014-01-30 22:31:00,
2014-01-30 17:36:00,24.8,15.1,30.32,SSW,202,0.0,0.0,66,0.00,,CLR,0.00,VWS V14.01,2014-01-30 22:36:00,
2014-01-30 17:41:00,24.5,15.1,30.32,SSW,202,0.0,0.0,67,0.00,,CLR,0.00,VWS V14.01,2014-01-30 22:41:00,
2014-01-30 17:46:00,24.4,15.0,30.32,SSW,202,2.0,2.0,67,0.00,,CLR,0.00,VWS V14.01,2014-01-30 22:46:00,
2014-01-30 17:51:00,24.2,15.2,30.32,SSW,202,0.0,2.0,68,0.00,,CLR,0.00,VWS V14.01,2014-01-30 22:51:00,
2014-01-30 17:56:00,24.0,15.3,30.32,SSW,202,0.0,2.0,69,0.00,,CLR,0.00,VWS V14.01,2014-01-30 22:56:00,
2014-01-30 18:01:00,23.7,15.0,30.32,SSW,202,1.0,3.0,69,0.00,,CLR,0.00,VWS V14.01,2014-01-30 23:01:00,
2014-01-30 18:06:00,23.5,15.2,30.32,SSW,202,2.0,3.0,70,0.00,,CLR,0.00,VWS V14.01,2014-01-30 23:06:00,
2014-01-30 18:11:00,23.4,15.1,30.32,SSW,212,2.0,5.0,70,0.00,,CLR,0.00,VWS V14.01,2014-01-30 23:11:00,
2014-01-30 18:16:00,23.4,15.1,30.32,SSW,212,5.0,5.0,70,0.00,,CLR,0.00,VWS V14.01,2014-01-30 23:16:00,
2014-01-30 18:21:00,23.8,15.8,30.32,SSE,159,1.0,5.0,71,0.00,,CLR,0.00,VWS V14.01,2014-01-30 23:21:00,
2014-01-30 18:26:00,24.2,16.2,30.32,SSE,155,0.0,5.0,71,0.00,,CLR,0.00,VWS V14.01,2014-01-30 23:26:00,
2014-01-30 18:31:00,24.4,16.4,30.32,SSE,155,2.0,5.0,71,0.00,,CLR,0.00,VWS V14.01,2014-01-30 23:31:00,
2014-01-30 18:32:00,24.5,16.5,30.32,SSE,155,4.0,5.0,71,0.00,,CLR,0.00,VWS V14.01,2014-01-30 23:32:00,
2014-01-30 18:41:00,24.9,16.8,30.32,SSE,158,4.0,6.0,71,0.00,,CLR,0.00,VWS V14.01,2014-01-30 23:41:00,
2014-01-30 18:46:00,25.1,17.0,30.32,SSE,165,3.0,6.0,71,0.00,,CLR,0.00,VWS V14.01,2014-01-30 23:46:00,
2014-01-30 18:51:00,25.2,17.1,30.31,SSW,211,4.0,7.0,71,0.00,,CLR,0.00,VWS V14.01,2014-01-30 23:51:00,
2014-01-30 18:56:00,25.3,16.9,30.31,SSW,204,4.0,7.0,70,0.00,,CLR,0.00,VWS V14.01,2014-01-30 23:56:00,
2014-01-30 19:01:00,25.4,17.0,30.31,SW,227,2.0,7.0,70,0.00,,CLR,0.00,VWS V14.01,2014-01-31 00:01:00,
2014-01-30 19:06:00,25.5,16.8,30.30,SW,233,3.0,7.0,69,0.00,,CLR,0.00,VWS V14.01,2014-01-31 00:06:00,
2014-01-30 19:11:00,25.6,17.2,30.29,South,169,2.0,7.0,70,0.00,,CLR,0.00,VWS V14.01,2014-01-31 00:11:00,
2014-01-30 19:16:00,25.7,17.9,30.28,SSW,210,1.0,8.0,72,0.00,,CLR,0.00,VWS V14.01,2014-01-31 00:16:00,
2014-01-30 19:21:00,25.8,18.0,30.28,SSW,212,5.0,8.0,72,0.00,,CLR,0.00,VWS V14.01,2014-01-31 00:21:00,
2014-01-30 19:26:00,26.0,18.2,30.28,South,185,3.0,8.0,72,0.00,,CLR,0.00,VWS V14.01,2014-01-31 00:26:00,
2014-01-30 19:31:00,26.0,18.5,30.28,South,190,2.0,10.0,73,0.00,,CLR,0.00,VWS V14.01,2014-01-31 00:31:00,
2014-01-30 19:36:00,26.0,18.5,30.28,WSW,252,3.0,3.0,73,0.00,,CLR,0.00,VWS V14.01,2014-01-31 00:36:00,
2014-01-30 19:41:00,26.1,18.6,30.28,South,171,3.0,4.0,73,0.00,,CLR,0.00,VWS V14.01,2014-01-31 00:41:00,
2014-01-30 19:46:00,26.1,19.0,30.28,South,186,1.0,7.0,74,0.00,,CLR,0.00,VWS V14.01,2014-01-31 00:46:00,
2014-01-30 19:51:00,26.1,19.0,30.27,South,189,2.0,7.0,74,0.00,,CLR,0.00,VWS V14.01,2014-01-31 00:51:00,
2014-01-30 19:56:00,26.1,19.3,30.26,SSE,160,4.0,7.0,75,0.00,,CLR,0.00,VWS V14.01,2014-01-31 00:56:00,
2014-01-30 20:01:00,26.2,19.4,30.26,SSE,148,1.0,7.0,75,0.00,,CLR,0.00,VWS V14.01,2014-01-31 01:01:00,
2014-01-30 20:06:00,26.2,19.4,30.26,SSW,192,3.0,6.0,75,0.00,,CLR,0.00,VWS V14.01,2014-01-31 01:06:00,
2014-01-30 20:11:00,26.2,19.7,30.26,South,176,4.0,6.0,76,0.00,,CLR,0.00,VWS V14.01,2014-01-31 01:11:00,
2014-01-30 20:16:00,26.3,19.8,30.25,South,177,3.0,6.0,76,0.00,,CLR,0.00,VWS V14.01,2014-01-31 01:16:00,
2014-01-30 20:21:00,26.3,19.8,30.25,SSW,213,4.0,6.0,76,0.00,,CLR,0.00,VWS V14.01,2014-01-31 01:21:00,
2014-01-30 20:26:00,26.4,19.9,30.25,SW,215,1.0,6.0,76,0.00,,CLR,0.00,VWS V14.01,2014-01-31 01:26:00,
2014-01-30 20:31:00,26.5,20.0,30.25,SSW,202,1.0,6.0,76,0.00,,CLR,0.00,VWS V14.01,2014-01-31 01:31:00,
2014-01-30 20:36:00,26.6,20.4,30.26,South,177,2.0,6.0,77,0.00,,CLR,0.00,VWS V14.01,2014-01-31 01:36:00,
2014-01-30 20:41:00,26.7,20.5,30.26,SSW,194,2.0,9.0,77,0.00,,CLR,0.00,VWS V14.01,2014-01-31 01:41:00,
2014-01-30 20:46:00,26.7,20.5,30.26,SSW,209,3.0,9.0,77,0.00,,CLR,0.00,VWS V14.01,2014-01-31 01:46:00,
2014-01-30 20:51:00,26.7,20.5,30.26,SW,232,3.0,9.0,77,0.00,,CLR,0.00,VWS V14.01,2014-01-31 01:51:00,
2014-01-30 20:56:00,26.8,20.6,30.25,SSW,213,1.0,9.0,77,0.00,,CLR,0.00,VWS V14.01,2014-01-31 01:56:00,
2014-01-30 21:01:00,26.7,20.5,30.26,West,271,2.0,9.0,77,0.00,,CLR,0.00,VWS V14.01,2014-01-31 02:01:00,
2014-01-30 21:06:00,26.7,20.5,30.26,WSW,240,0.0,4.0,77,0.00,,CLR,0.00,VWS V14.01,2014-01-31 02:06:00,
2014-01-30 21:11:00,26.6,20.4,30.25,SSW,211,3.0,5.0,77,0.00,,CLR,0.00,VWS V14.01,2014-01-31 02:11:00,
2014-01-30 21:16:00,26.6,20.4,30.25,SSW,207,0.0,5.0,77,0.00,,CLR,0.00,VWS V14.01,2014-01-31 02:16:00,
2014-01-30 21:21:00,26.5,20.3,30.26,WSW,248,1.0,5.0,77,0.00,,CLR,0.00,VWS V14.01,2014-01-31 02:21:00,
2014-01-30 21:26:00,26.4,20.2,30.26,WSW,248,2.0,5.0,77,0.00,,CLR,0.00,VWS V14.01,2014-01-31 02:26:00,
2014-01-30 21:31:00,26.2,20.0,30.25,WSW,248,0.0,5.0,77,0.00,,CLR,0.00,VWS V14.01,2014-01-31 02:31:00,
2014-01-30 21:36:00,26.0,19.8,30.25,WSW,248,0.0,2.0,77,0.00,,CLR,0.00,VWS V14.01,2014-01-31 02:36:00,
2014-01-30 21:41:00,25.8,19.3,30.25,WSW,248,0.0,2.0,76,0.00,,CLR,0.00,VWS V14.01,2014-01-31 02:41:00,
2014-01-30 21:46:00,25.5,19.0,30.25,WSW,248,1.0,2.0,76,0.00,,CLR,0.00,VWS V14.01,2014-01-31 02:46:00,
2014-01-30 21:51:00,25.3,19.4,30.25,SSW,192,1.0,4.0,78,0.00,,CLR,0.00,VWS V14.01,2014-01-31 02:51:00,
2014-01-30 21:56:00,25.1,19.2,30.25,WSW,240,0.0,5.0,78,0.00,,CLR,0.00,VWS V14.01,2014-01-31 02:56:00,
2014-01-30 22:01:00,24.9,19.3,30.25,SW,227,0.0,5.0,79,0.00,,CLR,0.00,VWS V14.01,2014-01-31 03:01:00,
2014-01-30 22:06:00,24.8,19.5,30.24,SW,227,0.0,2.0,80,0.00,,CLR,0.00,VWS V14.01,2014-01-31 03:06:00,
2014-01-30 22:11:00,24.9,20.2,30.23,WSW,252,3.0,6.0,82,0.00,,CLR,0.00,VWS V14.01,2014-01-31 03:11:00,
2014-01-30 22:16:00,25.1,20.7,30.23,SSW,204,2.0,6.0,83,0.00,,CLR,0.00,VWS V14.01,2014-01-31 03:16:00,
2014-01-30 22:21:00,25.2,20.8,30.23,SW,225,4.0,6.0,83,0.00,,CLR,0.00,VWS V14.01,2014-01-31 03:21:00,
2014-01-30 22:26:00,25.2,20.5,30.23,South,188,0.0,6.0,82,0.00,,CLR,0.00,VWS V14.01,2014-01-31 03:26:00,
2014-01-30 22:31:00,25.1,20.4,30.24,South,188,0.0,6.0,82,0.00,,CLR,0.00,VWS V14.01,2014-01-31 03:31:00,
2014-01-30 22:36:00,24.9,19.9,30.23,South,188,0.0,2.0,81,0.00,,CLR,0.00,VWS V14.01,2014-01-31 03:36:00,
2014-01-30 22:41:00,24.6,19.6,30.23,South,188,0.0,2.0,81,0.00,,CLR,0.00,VWS V14.01,2014-01-31 03:41:00,
2014-01-30 22:46:00,24.3,19.0,30.22,SSW,200,2.0,3.0,80,0.00,,CLR,0.00,VWS V14.01,2014-01-31 03:46:00,
2014-01-30 22:51:00,23.9,18.9,30.22,SSW,200,1.0,3.0,81,0.00,,CLR,0.00,VWS V14.01,2014-01-31 03:51:00,
2014-01-30 22:56:00,23.7,18.7,30.21,SSW,200,0.0,3.0,81,0.00,,CLR,0.00,VWS V14.01,2014-01-31 03:56:00,
2014-01-30 23:01:00,23.5,18.5,30.21,SSW,200,0.0,3.0,81,0.00,,CLR,0.00,VWS V14.01,2014-01-31 04:01:00,
2014-01-30 23:06:00,23.3,18.3,30.20,SSW,200,0.0,2.0,81,0.00,,CLR,0.00,VWS V14.01,2014-01-31 04:06:00,
2014-01-30 23:11:00,23.1,18.1,30.20,SSW,200,2.0,3.0,81,0.00,,CLR,0.00,VWS V14.01,2014-01-31 04:11:00,
2014-01-30 23:16:00,22.9,18.2,30.20,SSW,200,0.0,3.0,82,0.00,,CLR,0.00,VWS V14.01,2014-01-31 04:16:00,
2014-01-30 23:21:00,22.7,18.3,30.20,SSW,200,1.0,3.0,83,0.00,,CLR,0.00,VWS V14.01,2014-01-31 04:21:00,
2014-01-30 23:26:00,22.6,18.2,30.20,SSW,200,1.0,3.0,83,0.00,,CLR,0.00,VWS V14.01,2014-01-31 04:26:00,
2014-01-30 23:31:00,22.5,18.4,30.20,SSW,200,2.0,3.0,84,0.00,,CLR,0.00,VWS V14.01,2014-01-31 04:31:00,
2014-01-30 23:37:00,22.4,18.3,30.19,WSW,250,0.0,3.0,84,0.00,,CLR,0.00,VWS V14.01,2014-01-31 04:37:00,
2014-01-30 23:42:00,22.2,18.1,30.19,WSW,250,0.0,3.0,84,0.00,,CLR,0.00,VWS V14.01,2014-01-31 04:42:00,
2014-01-30 23:47:00,22.0,17.6,30.18,WSW,250,0.0,3.0,83,0.00,,CLR,0.00,VWS V14.01,2014-01-31 04:47:00,
2014-01-30 23:52:00,21.8,17.4,30.18,WSW,250,0.0,3.0,83,0.00,,CLR,0.00,VWS V14.01,2014-01-31 04:52:00,
2014-01-30 23:57:00,21.5,17.1,30.17,WSW,250,0.0,3.0,83,0.00,,CLR,0.00,VWS V14.01,2014-01-31 04:57:00,